Regional Weather Roundup
Issued by NWS Cleveland, OH

Home | Current Version | Previous Version | Graphics & Text | Print | Product List | Glossary On
Versions: 1 2 3 4 5 6 7 8 9 10 11 12 13 14 15 16 17 18 19 20 21 22 23 24 25 26 27 28 29 30 31 32 33 34 35 36 37 38 39 40 41 42 43 44 45 46 47 48 49 50
000
ASUS41 KCLE 301810
RWRCLE
OHIO REGIONAL WEATHER ROUNDUP
NATIONAL WEATHER SERVICE WILMINGTON, OH
200 PM EDT FRI SEP 30 2016

NOTE: "FAIR" INDICATES FEW OR NO CLOUDS BELOW 12,000 FEET WITH NO
SIGNIFICANT WEATHER AND/OR OBSTRUCTIONS TO VISIBILITY.

OHZ001>008-015>018-024>027-034-035-043-044-301900-
   NORTHWEST OHIO

CITY           SKY/WX    TMP DP  RH WIND       PRES   REMARKS
DEFIANCE       CLOUDY    65  57  75 E10       30.08F
FINDLAY        CLOUDY    65  56  72 E12       30.07F
TOLEDO EXPRESS CLOUDY    63  60  90 E14       30.10S
TOLEDO EXEC    CLOUDY    65  59  81 E10       30.11S
LIMA           LGT RAIN  60  59  96 NE13      30.05F
$$

OHZ009>014-019>023-028>033-038-089-301900-
   NORTHEAST OHIO

CITY           SKY/WX    TMP DP  RH WIND       PRES   REMARKS
CLE-HOPKINS    LGT RAIN  64  57  78 E5        30.13F
CLE-LAKEFRONT  CLOUDY    65  56  72 E5        30.11F
CUY CO. ARPT   CLOUDY    64  59  82 E12G21    30.13F
LORAIN-ELYRIA  LGT RAIN  60  56  86 E5        30.11  FOG
ASHTABULA      CLOUDY    61  59  93 E13       30.15F
AKRON-CANTON   TSTM      59  56  89 E8        30.11F FOG
WOOSTER        LGT RAIN  59  57  93 E10       30.10F
MANSFIELD      CLOUDY    60  59  96 E7        30.08F
YOUNGSTOWN     CLOUDY    62  55  77 E12       30.13S
$$

OHZ042-051>053-060>062-070>072-077>081-301900-
  SOUTHWEST OHIO

CITY           SKY/WX    TMP DP  RH WIND       PRES   REMARKS
CINC-COVINGTON CLOUDY    66  56  70 W3        30.02F
CINC-LUNKEN    CLOUDY    64  59  83 S6        30.02F
HAMILTON       CLOUDY    64  58  80 SW3       30.03F
DAYTON         CLOUDY    64  60  87 E14       30.02F
WRIGHT-PAT AFB CLOUDY    63  62  94 E12       30.01F
DAYTON GENERAL CLOUDY    62  58  86 SW3       30.01F
WILMINGTON     CLOUDY    62  58  86 SW5       30.02S
$$

OHZ036-037-039>041-045>050-054>059-063>069-073>076-082>088-301900-
  CENTRAL AND SOUTHEAST OHIO

CITY           SKY/WX    TMP DP  RH WIND       PRES   REMARKS
COLUMBUS       TSTM      61  61 100 CALM      30.03R FOG
OSU AIRPORT    TSTM      60  60 100 NE3       30.04R FOG
BOLTON FIELD   TSTM      59  59 100 NE9       30.04F
RICKENBACK AFB CLOUDY    60  60 100 NE7       30.01F THUNDER
NEWARK         CLOUDY    65  57  75 E9        30.02F
MARION         CLOUDY    63  58  83 NE7       30.07F
LANCASTER      CLOUDY    63  61  93 N3        30.01S
ZANESVILLE     CLOUDY    66  59  78 E13G20    30.04S
NEW PHILLY     RAIN      60  59  96 E6        30.09F FOG
$$




USA.gov is the U.S. government's official web portal to all federal, state and local government web resources and services.